Theta_e
299 297 295 295 295 296 295 295 296 295 294 294 293 293 291 291 290 289 289 291 292 293 293 293 293 294 294 294 294 294 294 294 293 292 292 292 293 292 292 291 291 290
299 297 295 295 295 295 295 297 296 293 293 292 293 292 292 291 290 290 289 290 291 292 291 292 292 292 292 292 292 292 292 291 290 291 291 291 290 290 290 290 290 290
299 297 296 295 294 295 295 295 293 292 293 293 293 292 291 290 289 289 289 290 290 290 290 290 290 290 290 291 291 291 290 290 289 289 290 289 289 289 289 289 289 289
298 297 296 295 295 295 294 292 292 291 291 291 291 291 290 289 288 288 289 288 290 289 289 289 289 289 289 289 290 289 289 288 288 288 288 287 287 287 287 287 286 286
297 296 296 295 295 293 292 291 290 290 290 290 289 289 288 288 287 287 287 289 289 289 288 288 288 288 288 288 289 288 287 286 286 287 286 285 285 284 284 285 284 284
296 296 296 295 293 291 290 290 290 289 290 289 289 288 288 288 287 287 287 288 288 288 288 287 287 287 287 287 287 287 286 285 285 285 284 284 283 283 283 283 283 283
295 295 295 294 291 291 290 290 290 289 290 290 288 287 287 287 287 287 288 288 287 287 287 286 286 286 286 286 286 286 285 284 284 284 284 283 283 282 282 283 283 282
295 295 294 292 290 289 289 289 288 288 288 287 286 287 286 286 287 287 287 287 287 286 286 286 286 285 285 285 285 284 283 284 283 283 283 283 283 282 282 282 281 281
294 293 291 290 289 289 288 287 287 286 286 286 285 286 286 286 286 286 287 287 286 286 286 285 285 284 285 285 284 284 283 282 283 283 283 283 282 282 282 281 280 280
293 292 291 289 288 288 288 287 287 287 287 286 286 285 284 285 285 286 286 286 285 285 285 284 284 284 284 284 284 283 282 282 282 283 283 283 283 282 281 280 280 279
292 291 290 288 287 286 286 286 286 286 286 284 284 283 284 284 284 284 284 285 285 284 284 284 284 283 283 282 283 283 283 282 282 282 283 283 283 281 280 279 279 279
291 290 289 288 287 287 286 285 285 285 285 284 283 283 283 283 283 283 284 284 285 284 284 284 283 283 282 283 283 283 283 282 282 282 282 282 281 280 279 279 279 279
289 289 289 288 288 287 285 285 285 285 284 284 283 283 283 282 282 282 283 284 284 284 283 283 283 283 283 283 283 282 282 282 282 282 281 280 279 278 278 278 278 278
289 288 288 288 288 287 284 284 284 284 284 284 283 283 283 282 282 282 283 283 283 282 282 283 283 283 283 282 282 282 282 281 281 281 280 279 278 278 278 277 278 278
290 288 287 287 286 285 284 284 284 283 283 283 283 283 282 282 282 282 282 282 282 282 281 281 281 282 282 281 281 282 282 281 281 281 280 278 277 277 277 277 277 278
290 289 287 286 285 284 285 284 284 283 283 283 283 283 282 282 282 282 282 282 281 281 281 280 280 281 282 283 283 282 282 282 282 281 280 278 277 277 277 277 277 278
290 289 287 285 285 285 284 283 283 283 283 282 283 283 282 282 282 282 282 282 281 280 280 280 280 280 283 284 284 284 282 282 281 280 279 278 278 277 277 277 277 278
289 288 286 285 285 284 284 284 283 283 283 282 282 282 282 282 281 281 281 282 281 281 280 280 279 282 284 285 285 284 283 281 281 280 279 278 278 278 278 278 278 278
288 287 286 285 285 285 284 283 283 282 282 282 282 282 282 281 281 281 281 281 280 280 279 279 279 282 284 285 285 284 283 281 281 281 280 279 279 278 278 279 279 278
287 286 286 285 285 285 284 284 283 283 283 283 282 282 282 281 281 281 281 281 280 280 280 279 278 282 284 285 285 285 284 282 281 280 280 280 279 279 279 279 279 279
287 287 286 285 285 285 284 283 283 283 283 283 282 282 281 281 281 281 281 281 280 280 279 279 279 283 285 286 285 285 285 283 280 280 280 279 279 279 279 279 280 280
286 286 286 285 285 284 284 283 283 283 282 283 282 282 282 282 281 281 281 281 280 279 279 278 278 283 285 286 286 286 286 282 280 279 279 279 279 280 280 280 280 280
287 286 286 285 285 284 283 283 283 282 282 282 281 282 281 280 280 281 280 280 279 279 278 278 278 282 285 285 286 286 286 283 281 280 280 280 280 280 280 280 279 279
286 286 285 285 284 283 284 283 283 283 282 282 281 280 280 280 280 280 279 279 279 279 278 278 278 281 284 285 286 286 286 284 283 282 282 282 282 281 281 280 280 280
286 286 285 284 284 284 284 284 283 282 282 282 282 281 280 280 280 279 279 279 279 278 280 278 278 280 284 285 285 286 286 285 285 284 284 284 284 284 284 283 282 282
286 285 285 284 284 284 284 284 283 282 281 281 281 281 280 280 279 279 278 278 278 278 279 279 278 278 282 285 285 286 286 285 285 284 284 284 285 285 285 284 283 282
Wind_Speed
8 8 8 8 7 6 6 7 7 8 7 6 7 8 9 8 9 9 7 6 7 6 5 5 5 5 4 5 5 4 5 4 4 3 4 4 3 4 4 4 3 3
11 10 7 7 6 6 6 8 7 6 7 6 5 6 6 8 9 8 8 7 6 6 6 5 5 6 6 6 5 5 4 4 4 2 4 5 5 5 5 5 4 3
11 10 9 9 8 9 9 7 6 6 6 5 3 3 5 6 9 7 7 8 8 7 7 6 6 6 6 6 6 5 5 6 6 5 5 5 5 5 5 4 4 3
11 10 9 9 8 9 7 6 6 6 3 3 6 5 4 4 6 7 7 8 7 7 7 7 7 7 6 6 7 5 6 6 5 6 6 5 5 5 4 3 4 4
10 9 8 8 7 6 6 7 7 6 7 5 5 6 6 6 7 6 7 8 8 8 7 7 7 7 7 7 6 7 7 6 5 6 6 6 5 5 4 4 5 4
9 9 10 9 8 8 7 7 8 7 7 8 8 7 7 7 7 8 9 10 8 8 8 8 8 7 7 7 7 6 6 6 5 6 7 6 6 4 4 4 4 4
10 9 10 9 7 9 8 9 8 8 8 8 7 7 7 8 8 8 9 9 10 9 9 9 9 8 7 7 6 7 6 6 7 6 7 5 6 6 4 4 4 4
11 10 9 8 9 8 8 7 7 7 6 6 8 6 7 8 8 7 8 9 9 9 9 9 8 8 8 7 7 8 7 4 6 6 7 6 6 6 5 3 3 4
11 10 8 8 9 9 9 8 6 7 7 9 8 8 7 7 7 8 9 9 8 9 9 9 9 8 7 7 7 8 8 6 5 6 7 8 7 7 6 5 5 4
11 10 11 10 9 8 10 10 8 8 9 9 8 6 8 6 7 8 8 9 8 9 9 8 9 8 8 7 8 8 8 8 7 6 6 6 7 7 7 6 6 5
11 10 11 10 9 7 8 8 8 9 8 7 7 8 7 6 5 6 8 8 8 9 9 9 9 9 8 8 7 7 8 8 8 7 6 6 6 6 7 6 6 4
11 11 12 12 11 10 9 8 7 9 9 7 8 8 8 7 7 7 8 10 9 9 9 9 9 9 9 9 8 8 7 7 7 7 7 6 6 6 6 5 5 5
11 11 10 10 11 11 8 7 9 9 10 10 9 9 10 9 7 8 7 9 10 9 9 9 9 8 8 8 9 8 8 8 8 7 6 5 5 5 5 5 4 4
11 10 9 10 10 9 7 7 7 8 9 8 8 9 9 9 10 9 8 8 8 8 8 8 8 8 8 8 8 8 8 7 7 7 7 6 5 5 5 4 4 4
10 9 7 8 8 7 7 8 9 8 7 8 8 8 7 7 8 7 8 8 7 7 7 6 7 8 7 8 9 9 8 8 8 7 7 6 6 5 4 4 4 4
10 8 9 8 8 9 9 9 8 7 7 7 8 7 7 8 6 6 8 9 10 9 7 5 4 4 8 11 9 9 9 7 7 8 7 7 6 6 4 4 4 4
9 10 9 10 9 8 7 8 7 7 6 5 6 7 7 8 8 8 8 8 8 8 10 9 8 8 16 16 16 15 11 9 8 7 6 6 5 6 6 5 5 5
10 10 10 9 8 8 8 6 8 8 7 9 9 8 7 6 9 10 10 8 7 7 7 7 6 10 17 16 16 15 9 6 5 6 6 6 6 6 5 5 5 5
10 10 10 8 6 6 6 9 10 10 10 9 10 10 8 9 8 8 8 5 5 5 6 5 3 10 13 14 13 13 13 9 5 6 6 6 6 6 6 5 5 5
9 8 7 7 6 6 6 6 7 9 7 7 7 6 6 7 7 7 5 7 6 7 6 6 7 12 16 17 17 17 17 12 6 7 6 5 7 7 6 6 7 6
9 9 8 7 7 6 6 7 7 6 7 6 6 8 9 9 9 8 7 5 4 5 5 6 6 15 18 18 18 18 19 13 5 5 5 4 5 5 6 7 8 7
8 7 8 7 8 7 7 7 7 8 8 6 5 5 4 4 4 3 5 6 6 7 6 5 5 15 17 19 19 18 18 7 5 5 5 4 4 6 7 7 7 8
10 9 7 8 7 7 8 7 8 9 7 6 7 6 6 7 7 5 4 6 7 7 7 4 3 11 15 15 16 16 12 5 6 5 4 5 5 6 6 6 6 7
9 7 7 7 8 9 8 7 5 4 6 8 8 8 8 7 6 6 6 6 7 6 5 5 4 7 13 14 14 16 10 6 6 6 5 6 6 6 4 5 8 13
6 8 9 9 8 7 8 8 8 8 6 6 6 5 6 5 6 6 6 5 7 9 10 9 7 7 13 13 15 16 10 5 5 5 5 6 5 5 5 6 8 12
6 9 8 9 9 8 7 7 6 7 7 7 7 5 6 5 6 6 9 7 7 7 8 9 10 9 12 18 18 18 16 7 5 5 6 6 6 6 7 9 7 8
Wind_Direction
179 180 182 184 193 185 181 187 188 183 183 180 182 178 174 167 150 160 159 164 175 173 160 160 161 158 150 158 169 165 165 151 148 148 145 162 130 127 112 110 109 110
192 183 181 181 182 180 191 199 186 185 188 188 191 173 153 144 154 151 152 159 158 155 149 157 162 157 156 163 162 163 147 143 126 88 132 120 119 112 107 109 110 109
196 188 188 186 186 186 188 186 177 185 194 185 141 146 153 152 148 149 149 153 157 152 154 156 155 156 159 154 152 151 144 134 132 136 131 121 114 116 110 109 107 103
195 191 189 190 190 187 181 176 175 184 161 146 185 166 150 149 142 140 146 155 151 149 149 155 155 154 151 145 147 140 130 129 130 137 124 112 101 105 110 107 99 88
193 189 188 188 186 168 167 176 178 184 181 168 141 154 158 162 157 146 151 156 151 150 150 152 150 148 147 148 149 135 135 126 132 138 126 115 107 109 105 113 106 109
193 193 191 189 182 165 174 183 190 178 170 168 177 164 167 169 171 164 163 158 157 152 151 151 150 148 152 147 144 136 135 131 133 128 118 119 121 108 105 103 125 133
190 188 193 188 176 185 183 183 182 178 180 179 150 170 159 173 179 170 163 160 154 155 156 154 152 149 148 147 139 132 123 123 129 128 123 119 120 113 111 128 148 144
194 192 186 180 187 183 187 182 176 179 165 145 172 170 164 170 173 168 166 158 154 153 152 150 147 144 145 145 138 130 124 122 130 127 125 126 127 138 148 147 144 152
189 188 174 178 179 182 186 180 174 166 161 171 176 172 173 173 164 164 167 160 155 154 150 147 147 145 149 146 140 138 135 137 136 142 144 146 152 154 155 151 156 162
190 183 181 183 182 180 185 185 178 177 171 177 169 156 168 162 158 162 160 164 157 152 150 146 148 148 149 149 142 141 139 142 146 151 151 151 156 155 154 162 168 160
188 182 185 184 183 173 181 175 178 175 171 163 146 160 165 155 148 154 161 165 165 160 155 156 158 155 149 145 145 143 143 143 149 153 157 160 157 154 157 161 167 165
187 186 189 184 183 182 180 171 168 174 173 162 157 161 162 167 160 164 170 172 167 164 163 159 154 154 154 154 150 146 139 141 149 158 160 154 151 151 161 167 162 155
186 189 184 181 184 185 172 165 173 175 174 174 167 163 167 167 168 162 171 172 171 165 161 155 156 157 155 153 148 147 147 150 153 152 147 143 146 155 160 161 157 154
188 185 182 184 184 180 158 157 162 167 172 165 162 167 168 167 170 171 169 168 160 158 157 155 154 156 156 150 149 149 148 149 152 152 152 153 155 159 155 159 160 166
181 173 169 169 174 165 163 170 171 164 160 163 173 176 182 147 151 151 151 151 153 157 149 152 160 163 160 157 151 150 150 153 155 158 159 156 156 155 156 155 167 180
181 169 175 165 165 172 178 175 169 159 152 156 173 175 167 172 164 146 163 167 164 159 150 146 160 152 166 158 150 151 156 155 159 164 164 159 155 150 150 163 182 188
176 177 172 173 174 170 160 150 156 162 167 165 170 168 165 165 170 166 167 171 166 156 161 171 174 175 171 170 166 159 158 162 164 159 148 144 148 154 161 175 188 204
179 171 171 171 161 162 155 150 160 166 171 178 176 168 169 163 180 182 176 173 167 165 166 163 159 172 176 174 172 169 159 127 135 143 154 163 167 170 167 169 188 199
174 167 171 169 166 160 160 166 173 175 178 178 183 184 177 178 182 173 182 158 158 161 165 165 90 162 172 169 169 166 163 153 160 154 160 168 171 167 169 177 186 195
167 166 165 165 160 163 161 165 168 180 174 176 172 163 161 174 177 174 161 173 170 164 172 157 152 169 176 175 173 172 171 169 161 162 167 167 167 171 172 190 200 201
161 164 166 158 160 157 153 166 171 160 158 161 164 169 174 180 181 181 180 156 148 159 157 169 176 180 180 177 176 176 176 173 150 151 157 163 176 175 188 198 205 209
159 162 167 162 161 154 155 159 164 171 167 153 142 135 109 104 105 131 157 158 163 169 167 174 171 190 184 179 181 182 175 155 147 153 167 171 186 197 205 213 210 213
166 161 156 157 153 152 161 159 161 163 152 140 151 145 144 164 165 142 144 150 161 164 170 170 143 194 191 184 181 177 170 158 158 170 179 188 206 211 212 204 207 209
162 151 145 152 157 166 158 160 149 119 148 159 156 158 162 161 145 132 148 151 154 158 156 154 159 187 189 184 180 181 174 160 171 179 189 200 216 214 211 223 224 224
149 154 160 159 162 160 160 152 156 158 145 143 147 141 149 132 148 142 149 155 166 167 162 159 167 180 186 186 185 188 178 175 183 190 202 219 224 235 217 220 228 229
148 158 158 160 163 156 151 149 138 133 146 153 154 149 143 149 152 147 161 169 169 171 178 173 169 178 184 187 187 191 187 176 195 201 220 219 225 233 242 241 218 224